Погода в Соловках

Россия / Архангельская область     65°01′47″N   35°43′23″E
темп.,
°C
ветер,
м/с
пор.,
м/с
влажн.,
%
обл.,
%
осадки,
мм/ч
давл.,
гПа
погр.,
м
2 марта, вт
вт200:00−1зсз81484100 0.3 994255
03:00−1з10169183 0.3 994479
06:00−1ссз142090100 0.9 995848
09:00−5сз10178276 0.9 998438
12:00−4сз11177828 0.0 1001617
15:00−4сз10177841 0.0 1003502
18:00−5сз916800 0.0 1005303
21:00−6зсз814810 0.0 1006255
3 марта, ср
ср300:00−7зсз7129011 0.0 1004165
03:00−6зсз6109247 0.0 1004197
06:00−6сз599599 0.1 1002131
09:00−7зсз589597 0.1 1002108
12:00−7зсз579430 0.0 1001150
15:00−7зсз349242 0.0 100146
18:00−8зсз339385 0.0 99921
21:00−7ссз339492 0.0 99921
4 марта, чт
чт400:00−8ссв3390100 0.0 99823
03:00−9с3490100 0.0 99822
06:00−9с4493100 0.0 99977
09:00−9с3496100 0.1 99987
12:00−8ссз239598 0.1 999154
15:00−8сз349499 0.1 1000230
18:00−10сз2395100 0.1 100022
21:00−9св4595100 0.6 1002184
5 марта, пт
пт500:00−13св5893100 0.1 1003189
03:00−14с349699 0.2 100545
06:00−12с4894100 0.1 1007307
09:00−13с589498 0.2 1008240
12:00−14с479470 0.0 1009223
15:00−13сз229137 0.0 101033
18:00−13з348999 0.0 101025
21:00−11з459498 0.0 100984
6 марта, сб
сб600:00−12зсз569456 0.0 100861
03:00−13зсз559628 0.0 100851
06:00−12з459557 0.0 100664
09:00−15з459771 0.0 100462
12:00−13зюз349456 0.0 1003106
15:00−13ю449340 0.0 100086
18:00−13ююв569799 0.0 99778
21:00−12юв699599 0.0 994142